User: anonymous   Login
Location: Poughquag
(41.6090°N, 73.6820°W)
Time: 18:55:57
(UTC-05:00)
Language:

METEOR M2 - Orbit

View from above orbital plane
View from above orbital plane
View from above satellite
View from above satellite

Ground track
Ground track

The orbit data is extracted from the following two-line orbital elements,

1 40069U 14037A   23332.56595728  .00000268  00000-0  14326-3 0  9999
2 40069  98.4284 330.9478 0004986 215.3831 144.7017 14.20848504486996
Epoch (UTC): 28 November 2023 13:34:58
Eccentricity: 0.0004986
inclination: 98.4284°
perigee height: 819 km
apogee height: 826 km
right ascension of ascending node: 330.9478°
argument of perigee: 215.3831°
revolutions per day: 14.20848504
mean anomaly at epoch: 144.7017°
orbit number at epoch: 48699

The dashed part of the orbit path shows where the satellite is in the earth's shadow,  

DLR